EHI
0 0 0 0 0 0 0 0 0 0 0 0 0 0 0 0 0 0 0 0 0 0 0 0 0 0 0 0 0 0 0 0 0 0 0 0 0 0 0 0 0 0 0
0 0 0 0 0 0 0 0 0 0 0 0 0 0 0 0 0 0 0 0 0 0 0 0 0 0 0 0 0 0 0 0 0 0 0 0 0 0 0 0 0 0 0
0 0 0 0 0 0 0 0 0 0 0 0 0 0 0 0 0 0 0 0 0 0 0 0 0 0 0 0 0 0 0 0 0 0 0 0 0 0 0 0 0 0 0
0 0 0 0 0 0 0 0 0 0 0 0 0 0 0 0 0 0 0 0 0 0 0 0 0 0 0 0 0 0 0 0 0 0 0 0 0 0 0 0 0 0 0
0 0 0 0 0 0 0 0 0 0 0 0 0 0 0 0 0 0 0 0 0 0 0 0 0 0 0 0 0 0 0 0 0 0 0 0 0 0 0 0 0 0 0
0 0 0 0 0 0 0 0 0 0 0 0 0 0 0 0 0 0 0 0 0 0 0 0 0 0 0 0 0 0 0 0 0 0 0 0 0 0 0 0 0 0 0
0 0 0 0 0 0 0 0 0 0 0 0 0 0 0 0 0 0 0 0 0 0 0 0 0 0 0 0 0 0 0 0 0 0 0 0 0 0 0 0 0 0 0
0 0 0 0 0 0 0 0 0 0 0 0 0 0 0 0 0 0 0 0 0 0 0 0 0 0 0 0 0 0 0 0 0 0 0 0 0 0 0 0 0 0 0
0 0 0 0 0 0 0 0 0 0 0 0 0 0 0 0 0 0 0 0 0 0 0 0 0 0 0 0 0 0 0 0 0 0 0 0 0 0 0 0 0 0 0
0 0 0 0 0 0 0 0 0 0 0 0 0 0 0 0 0 0 0 0 0 0 0 0 0 0 0 0 0 0 0 0 0 0 0 0 0 0 0 0 0 0 0
0 0 0 0 0 0 0 0 0 0 0 0 0 0 0 0 0 0 0 0 0 0 0 0 0 0 0 0 0 0 0 0 0 0 0 0 0 0 0 0 0 0 0
0 0 0 0 0 0 0 0 0 0 0 0 0 0 0 0 0 0 0 0 0 0 0 0 0 0 0 0 0 0 0 0 0 0 0 0 0 0 0 0 0 0 0
0 0 0 0 0 0 0 0 0 0 0 0 0 0 0 0 0 0 0 0 0 0 0 0 0 0 0 0 0 0 0 0 0 0 0 0 0 0 0 0 0 0 0
0 0 0 0 0 0 0 0 0 0 0 0 0 0 0 0 0 0 0 0 0 0 0 0 0 0 0 0 0 0 0 0 0 0 0 0 0 0 0 0 0 0 0
0 0 0 0 0 0 0 0 0 0 0 0 0 0 0 0 0 0 0 0 0 0 0 0 0 0 0 0 0 0 0 0 0 0 0 0 0 0 0 0 0 0 0
0 0 0 0 0 0 0 0 0 0 0 0 0 0 0 0 0 0 0 0 0 0 0 0 0 0 0 0 0 0 0 0 0 0 0 0 0 0 0 0 0 0 0
0 0 0 0 0 0 0 0 0 0 0 0 0 0 0 0 0 0 0 0 0 0 0 0 0 0 0 0 0 0 0 0 0 0 0 0 0 0 0 0 0 0 0
0 0 0 0 0 0 0 0 0 0 0 0 0 0 0 0 0 0 0 0 0 0 0 0 0 0 0 0 0 0 0 0 0 0 0 0 0 0 0 0 0 0 0
0 0 0 0 0 0 0 0 0 0 0 0 0 0 0 0 0 0 0 0 0 0 0 0 0 0 0 0 0 0 0 0 0 0 0 0 0 0 0 0 0 0 0
0 0 0 0 0 0 0 0 0 0 0 0 0 0 0 0 0 0 0 0 0 0 0 0 0 0 0 0 0 0 0 0 0 0 0 0 0 0 0 0 0 0 0
0 0 0 0 0 0 0 0 0 0 0 0 0 0 0 0 0 0 0 0 0 0 0 0 0 0 0 0 0 0 0 0 0 0 0 0 0 0 0 0 0 0 0
0 0 0 0 0 0 0 0 0 0 0 0 0 0 0 0 0 0 0 0 0 0 0 0 0 0 0 0 0 0 0 0 0 0 0 0 0 0 0 0 0 0 0
0 0 0 0 0 0 0 0 0 0 0 0 0 0 0 0 0 0 0 0 0 0 0 0 0 0 0 0 0 0 0 0 0 0 0 0 0 0 0 0 0 0 0
0 0 0 0 0 0 0 0 0 0 0 0 0 0 0 0 0 0 0 0 0 0 0 0 0 0 0 0 0 0 0 0 0 0 0 0 0 0 0 0 0 0 0
0 0 0 0 0 0 0 0 0 0 0 0 0 0 0 0 0 0 0 0 0 0 0 0 0 0 0 0 0 0 0 0 0 0 0 0 0 0 0 0 0 0 0
0 0 0 0 0 0 0 0 0 0 0 0 0 0 0 0 0 0 0 0 0 0 0 0 0 0 0 0 0 0 0 0 0 0 0 0 0 0 0 0 0 0 0
Wind_Speed
4 4 5 4 4 4 4 4 5 5 6 5 5 4 4 3 2 2 3 2 2 2 2 3 3 3 3 3 3 3 4 4 3 2 2 2 3 4 4 4 5 6 7
3 4 5 4 4 5 5 5 6 6 6 6 5 4 4 4 3 3 3 3 2 2 2 2 3 3 3 3 3 4 4 4 4 4 2 2 3 4 5 4 4 5 5
2 3 4 5 5 5 5 6 6 6 6 6 6 5 5 4 4 4 4 3 2 2 2 2 2 2 2 2 3 3 3 4 4 4 3 2 2 3 4 3 4 3 4
1 2 3 4 4 4 5 5 6 6 6 6 6 6 5 5 5 5 5 4 3 2 1 1 1 1 1 1 1 1 2 2 3 4 3 3 2 3 4 4 3 2 3
1 1 3 4 4 4 4 5 5 5 6 5 5 5 5 4 5 6 5 5 3 2 2 1 1 1 1 1 1 1 1 1 2 3 3 3 3 4 4 3 4 4 2
1 1 2 3 3 4 4 4 5 5 5 5 5 5 5 5 8 8 6 4 4 3 2 1 1 2 2 3 3 2 2 2 2 3 3 4 5 5 4 5 5 4 3
1 1 1 2 3 3 4 4 5 4 4 4 5 5 5 5 8 9 9 5 3 2 2 1 1 1 0 1 2 3 3 4 4 3 4 5 5 6 7 6 5 4 3
1 1 0 1 2 2 3 3 3 4 4 3 4 4 4 5 8 8 9 4 3 3 3 2 1 2 2 2 1 1 1 1 3 3 3 3 3 5 6 6 6 5 4
1 1 1 0 1 2 3 3 3 3 4 4 3 4 4 5 7 7 8 3 3 3 3 4 4 3 4 4 1 1 1 0 1 3 4 3 4 6 7 6 6 6 4
1 1 0 0 1 1 2 3 3 3 3 3 3 3 3 3 4 6 7 3 3 3 3 3 5 4 5 4 1 1 1 1 1 2 2 3 3 5 8 7 7 7 4
2 1 1 1 2 2 2 2 3 3 3 3 3 2 1 2 2 3 4 2 3 3 2 2 2 5 5 5 2 0 1 1 1 2 2 2 3 3 3 3 4 6 5
1 1 2 3 3 2 2 3 3 3 4 4 3 2 1 0 1 1 3 3 3 2 2 2 2 4 4 4 2 1 0 1 1 1 2 2 2 2 2 3 4 3 3
3 3 4 4 4 3 3 3 3 3 2 3 2 2 2 1 1 1 1 3 4 2 2 3 3 3 3 2 1 2 1 1 1 2 2 2 2 3 3 3 4 4 4
4 4 4 4 4 4 3 3 2 2 2 2 2 2 2 2 1 1 1 1 2 2 2 3 4 4 2 2 2 2 1 1 2 2 2 2 3 3 3 3 3 4 3
4 4 4 4 3 3 3 3 3 3 3 3 2 2 2 2 1 1 1 1 1 2 3 2 2 2 1 1 1 1 1 1 1 2 2 2 3 3 3 3 3 3 3
4 4 2 2 2 2 3 3 6 7 7 8 8 5 3 4 4 3 3 3 4 4 3 2 3 3 2 2 1 1 1 2 2 2 3 3 3 4 3 3 3 3 3
4 4 3 2 2 3 3 3 4 5 9 10 10 10 9 8 7 6 5 5 6 5 3 4 4 3 3 2 2 2 2 2 3 3 3 3 4 4 4 4 4 4 4
4 4 4 3 3 3 4 4 3 3 3 4 8 13 12 12 10 9 5 2 4 4 4 5 5 4 3 3 3 3 2 2 2 3 3 4 4 4 4 4 4 5 4
4 3 3 4 3 3 3 4 4 4 4 4 3 4 10 10 9 7 5 4 5 5 5 5 5 5 4 4 3 3 3 3 3 3 4 4 4 4 4 4 4 7 5
4 6 6 4 4 3 4 4 3 3 3 3 3 2 1 3 3 4 5 6 6 6 5 5 4 4 4 4 4 4 4 4 4 4 4 4 4 4 5 6 5 5 5
5 5 7 4 3 4 4 4 4 3 3 3 3 3 2 2 4 5 5 6 7 7 6 6 5 4 4 4 4 4 5 5 5 5 5 5 5 5 5 5 5 5 5
5 4 4 4 4 4 5 5 5 5 5 5 4 4 4 2 2 3 3 4 5 6 6 5 5 5 5 5 5 5 5 6 5 5 6 5 5 5 5 5 5 5 5
5 5 5 5 4 6 5 5 5 5 6 6 6 5 4 4 4 4 5 5 5 4 4 4 5 5 4 5 5 5 6 6 6 7 6 6 6 6 6 6 7 7 7
5 5 5 5 5 5 6 6 6 6 6 7 7 7 7 6 5 6 6 6 6 5 5 5 5 6 7 5 5 5 6 6 6 6 9 8 7 7 6 6 7 8 7
5 5 5 5 5 5 6 6 6 7 7 7 7 7 7 8 8 8 7 7 8 8 9 7 5 6 8 9 7 6 8 11 10 6 6 7 8 8 7 7 7 7 7
4 4 4 4 4 5 5 5 6 7 6 7 7 7 7 7 8 8 8 9 9 9 9 8 10 12 12 9 9 10 10 11 12 12 7 6 7 7 8 7 9 8 8
Wind_Direction
356 348 340 336 332 334 343 342 337 335 331 331 329 337 332 323 317 311 301 279 253 252 249 236 229 215 204 205 200 197 193 186 191 195 180 171 168 163 163 173 156 170 177
360 340 328 327 341 351 350 349 347 344 339 337 339 350 344 342 346 333 320 312 277 266 259 245 243 231 210 202 203 202 201 192 179 183 178 175 179 163 157 160 153 158 163
360 330 327 343 355 354 351 353 348 345 347 348 350 353 350 352 350 340 335 322 301 277 261 243 242 232 229 215 206 200 205 201 177 170 168 163 168 155 143 139 135 132 150
340 320 335 343 352 358 360 355 349 351 355 356 355 355 355 355 352 351 344 334 324 305 289 272 256 224 233 216 210 202 197 193 174 169 166 158 158 153 143 146 141 137 144
333 349 4 354 4 359 357 355 355 357 358 357 358 355 354 355 3 360 342 331 326 319 306 283 200 153 158 151 179 166 138 180 171 170 171 160 163 160 166 156 148 139 131
342 32 24 349 358 350 352 359 356 351 351 358 358 355 357 3 359 356 348 331 330 330 324 317 225 190 181 177 185 184 174 187 192 184 187 181 184 172 156 157 150 152 166
351 51 37 359 355 355 354 355 348 344 355 358 353 355 358 359 355 354 351 338 326 329 331 342 343 2 140 158 179 188 199 217 217 203 202 201 185 174 167 168 167 164 161
33 2 40 344 337 341 338 335 335 340 347 342 341 346 351 358 7 5 352 348 346 351 360 1 14 31 26 27 89 148 174 209 218 205 203 209 187 170 171 169 159 139 111
165 279 304 301 330 332 326 323 324 330 328 327 333 346 352 2 18 14 3 349 1 5 16 23 27 41 34 20 70 136 139 144 138 152 154 159 157 163 157 146 150 151 148
157 192 323 2 329 309 307 311 313 308 304 315 327 336 353 2 25 20 12 358 356 359 9 28 42 39 21 9 10 157 158 169 130 114 114 130 147 158 173 175 169 165 150
83 40 334 286 264 257 267 283 293 299 306 306 303 306 335 1 30 26 15 8 348 343 356 8 22 24 15 358 353 88 177 153 144 139 132 135 131 136 155 161 159 162 157
140 238 261 263 267 277 255 263 277 290 292 293 295 304 302 75 86 34 8 355 346 348 346 357 15 9 4 360 358 336 17 35 117 133 133 132 136 138 134 134 135 136 140
213 231 242 247 240 239 245 254 260 265 275 287 303 314 314 322 148 115 358 343 352 352 341 327 324 327 335 322 284 274 273 197 172 159 155 152 145 136 124 115 110 104 101
240 238 238 242 240 233 227 233 249 265 280 293 304 303 302 315 357 24 322 312 329 331 323 314 308 305 299 286 278 272 246 190 164 159 151 142 128 126 132 134 133 133 122
274 257 247 243 245 246 235 229 232 228 220 233 259 283 302 302 279 336 352 339 344 333 323 305 287 275 271 262 240 225 192 159 158 155 150 146 144 142 148 147 144 144 147
296 299 294 277 254 248 253 256 238 232 232 227 229 234 248 244 238 250 273 292 306 320 321 287 283 271 254 242 230 228 209 195 182 168 167 168 168 166 165 163 160 162 163
309 310 306 299 291 272 261 258 269 258 244 245 244 241 239 249 252 254 264 286 291 292 268 260 260 259 247 237 224 220 221 208 187 179 180 177 175 173 169 172 175 173 174
322 328 323 302 290 281 277 272 266 266 263 253 241 236 237 240 244 247 249 270 274 246 238 247 252 252 243 231 223 218 218 212 195 189 186 184 180 177 177 180 182 181 179
331 327 316 305 294 289 290 288 283 279 275 270 260 235 230 235 243 245 218 225 248 253 244 240 240 242 241 231 221 213 209 209 204 195 194 190 186 183 188 188 185 187 183
334 335 329 318 317 320 312 300 294 294 295 294 288 277 185 179 216 221 209 223 240 251 255 251 244 237 232 230 224 216 214 214 211 206 200 196 192 187 191 191 187 185 187
336 335 337 333 331 330 323 319 319 315 311 309 303 305 307 219 233 240 227 220 227 237 244 246 243 238 234 229 220 220 220 219 215 210 205 201 196 194 193 192 193 190 184
338 341 345 346 343 343 338 335 336 336 334 329 324 320 312 311 291 282 281 271 248 236 234 235 236 232 224 219 219 222 224 220 217 213 209 204 199 196 194 195 195 192 189
345 350 352 351 352 351 350 349 348 347 346 344 343 344 351 341 330 325 317 310 306 297 272 246 240 240 233 225 220 219 227 228 217 208 206 205 201 198 196 199 200 196 197
355 360 360 357 359 358 356 355 354 354 353 353 354 352 351 345 337 332 330 327 326 322 322 307 279 260 251 244 235 228 227 233 233 220 206 204 203 201 197 200 200 199 199
355 359 1 0 360 357 355 355 356 357 356 355 354 353 351 350 347 345 344 342 339 333 326 320 315 301 284 267 255 249 245 239 237 234 221 209 206 202 198 200 198 197 196
351 358 1 360 358 355 355 355 356 355 354 354 352 350 349 348 348 348 347 346 340 334 332 331 327 324 315 300 282 265 251 243 240 237 231 220 210 208 201 201 201 198 197